| time (UTC) | temp F | wind direction | speed knots | gust knots | rain 1hr in | rain 24hr in | rain mn in | humidity % | barometer mb |
| 20260506221533 | 44 | 263 | 2.6 | 5.2 | 0.00 | 0.33 | 0.33 | 96 | 955.6 |
| 20260506220035 | 44 | 266 | 1.7 | 3.5 | 0.00 | 0.33 | 0.33 | 96 | 955.5 |
| 20260506214528 | 45 | 268 | 1.7 | 3.5 | 0.00 | 0.33 | 0.33 | 96 | 955.6 |
| 20260506213026 | 45 | 245 | 1.7 | 3.5 | 0.01 | 0.33 | 0.33 | 96 | 955.4 |
| 20260506211525 | 45 | 259 | 1.7 | 3.5 | 0.01 | 0.33 | 0.33 | 95 | 955.2 |
| 20260506210045 | 45 | 259 | 1.7 | 3.5 | 0.01 | 0.33 | 0.33 | 96 | 954.7 |
| 20260506204522 | 46 | 267 | 1.7 | 5.2 | 0.01 | 0.34 | 0.33 | 95 | 954.6 |
| 20260506203020 | 46 | 262 | 1.7 | 3.5 | 0.01 | 0.33 | 0.32 | 95 | 954.1 |
| 20260506201522 | 47 | 255 | 1.7 | 5.2 | 0.02 | 0.33 | 0.32 | 95 | 953.7 |
| 20260506200021 | 47 | 254 | 1.7 | 3.5 | 0.02 | 0.33 | 0.32 | 95 | 953.9 |
| 20260506194517 | 47 | 254 | 1.7 | 3.5 | 0.02 | 0.35 | 0.32 | 95 | 953.9 |
| 20260506193022 | 47 | 255 | 1.7 | 2.6 | 0.01 | 0.34 | 0.31 | 95 | 953.8 |
| 20260506191514 | 48 | 255 | 1.7 | 2.6 | 0.00 | 0.33 | 0.30 | 95 | 953.6 |
| 20260506190014 | 48 | 254 | 1.7 | 3.5 | 0.00 | 0.33 | 0.30 | 94 | 953.4 |
| 20260506184510 | 49 | 252 | 1.7 | 3.5 | 0.00 | 0.33 | 0.30 | 94 | 953.2 |
| 20260506183007 | 50 | 246 | 1.7 | 3.5 | 0.00 | 0.33 | 0.30 | 94 | 953.2 |
| 20260506181510 | 52 | 249 | 0.9 | 4.3 | 0.00 | 0.33 | 0.30 | 93 | 952.9 |
| 20260506180009 | 55 | 256 | 2.6 | 5.2 | 0.01 | 0.33 | 0.30 | 93 | 952.7 |
| 20260506174506 | 56 | 207 | 0.9 | 4.3 | 0.01 | 0.33 | 0.30 | 94 | 952.5 |
| 20260506173005 | 56 | 142 | 3.5 | 7.8 | 0.01 | 0.33 | 0.30 | 94 | 952.3 |
| 20260506171504 | 56 | 186 | 5.2 | 11.3 | 0.01 | 0.33 | 0.30 | 95 | 952.4 |
| 20260506170002 | 56 | 144 | 3.5 | 9.6 | 0.00 | 0.32 | 0.28 | 95 | 952.7 |
| 20260506164626 | 55 | 145 | 4.3 | 11.3 | 0.01 | 0.32 | 0.28 | 95 | 952.7 |
| 20260506164513 | 55 | 133 | 6.1 | 11.3 | 0.01 | 0.32 | 0.28 | 95 | 952.6 |
| 20260506163111 | 55 | 116 | 4.3 | 9.6 | 0.01 | 0.32 | 0.28 | 95 | 952.7 |
| 20260506161559 | 55 | 123 | 3.5 | 9.6 | 0.03 | 0.32 | 0.28 | 95 | 952.7 |
| 20260506160120 | 55 | 123 | 4.3 | 7.8 | 0.05 | 0.32 | 0.28 | 94 | 952.7 |
| 20260506154558 | 55 | 150 | 1.7 | 7.8 | 0.04 | 0.31 | 0.28 | 95 | 952.8 |
| 20260506153055 | 55 | 120 | 5.2 | 7.8 | 0.05 | 0.31 | 0.28 | 94 | 952.8 |
| 20260506151557 | 54 | 126 | 4.3 | 9.6 | 0.04 | 0.28 | 0.26 | 94 | 952.9 |
| 20260506144552 | 54 | 84 | 6.1 | 11.3 | 0.04 | 0.28 | 0.24 | 94 | 952.5 |
| 20260506143051 | 54 | 90 | 6.1 | 10.4 | 0.04 | 0.27 | 0.23 | 94 | 952.8 |
| 20260506141549 | 54 | 101 | 6.1 | 9.6 | 0.06 | 0.26 | 0.22 | 94 | 952.9 |
| 20260506140046 | 54 | 84 | 7.0 | 11.3 | 0.09 | 0.26 | 0.22 | 94 | 952.8 |
| 20260506134543 | 54 | 102 | 5.2 | 9.6 | 0.11 | 0.24 | 0.20 | 94 | 953.0 |
| 20260506133052 | 54 | 82 | 7.0 | 9.6 | 0.11 | 0.22 | 0.18 | 93 | 953.4 |
| 20260506131540 | 54 | 118 | 5.2 | 7.8 | 0.11 | 0.20 | 0.16 | 93 | 953.7 |
| 20260506130040 | 54 | 80 | 7.0 | 12.2 | 0.08 | 0.17 | 0.13 | 93 | 953.6 |
| 20260506124539 | 54 | 107 | 6.1 | 9.6 | 0.05 | 0.13 | 0.09 | 93 | 953.7 |
| 20260506123036 | 54 | 109 | 7.0 | 11.3 | 0.03 | 0.11 | 0.07 | 93 | 953.3 |
| 20260506121535 | 54 | 92 | 7.0 | 11.3 | 0.01 | 0.09 | 0.05 | 93 | 953.3 |
| 20260506120050 | 53 | 92 | 5.2 | 7.8 | 0.02 | 0.09 | 0.05 | 93 | 953.3 |
| 20260506114534 | 53 | 111 | 5.2 | 7.8 | 0.01 | 0.09 | 0.04 | 93 | 953.5 |
| 20260506113033 | 53 | 94 | 3.5 | 7.8 | 0.02 | 0.09 | 0.04 | 92 | 953.6 |
| 20260506111531 | 53 | 106 | 5.2 | 10.4 | 0.03 | 0.09 | 0.04 | 92 | 953.6 |
| 20260506110030 | 54 | 66 | 5.2 | 8.7 | 0.02 | 0.08 | 0.03 | 92 | 953.7 |
| 20260506104537 | 54 | 101 | 5.2 | 7.8 | 0.02 | 0.08 | 0.03 | 92 | 953.9 |
| 20260506103038 | 54 | 113 | 2.6 | 6.1 | 0.01 | 0.07 | 0.02 | 91 | 953.7 |
| 20260506101525 | 53 | 90 | 3.5 | 5.2 | 0.01 | 0.06 | 0.01 | 90 | 953.5 |
| 20260506100024 | 54 | 119 | 2.6 | 3.5 | 0.01 | 0.06 | 0.01 | 89 | 953.4 |
| 20260506094522 | 53 | 186 | 0.0 | 2.6 | 0.01 | 0.06 | 0.01 | 90 | 953.2 |
| 20260506093022 | 53 | 106 | 1.7 | 5.2 | 0.01 | 0.06 | 0.01 | 91 | 953.3 |
| 20260506091519 | 53 | 163 | 0.9 | 6.1 | 0.00 | 0.05 | 0.00 | 92 | 953.4 |
| 20260506090016 | 52 | 141 | 2.6 | 3.5 | 0.00 | 0.05 | 0.00 | 93 | 953.4 |
| 20260506084525 | 50 | 128 | 0.0 | 2.6 | 0.00 | 0.05 | 0.00 | 92 | 953.7 |
| 20260506083011 | 50 | 269 | 0.0 | 0.9 | 0.00 | 0.05 | 0.00 | 91 | 953.8 |
| 20260506081511 | 50 | 269 | 0.0 | 2.6 | 0.00 | 0.05 | 0.00 | 91 | 953.9 |
| 20260506073006 | 51 | 24 | 0.0 | 4.3 | 0.00 | 0.05 | 0.00 | 90 | 953.6 |
| 20260506071507 | 51 | 290 | 0.9 | 2.6 | 0.00 | 0.05 | 0.00 | 90 | 953.7 |
| 20260506061600 | 51 | 51 | 0.9 | 9.6 | 0.00 | 0.05 | 0.00 | 89 | 954.4 |
| 20260506044549 | 52 | 30 | 1.7 | 5.2 | 0.00 | 0.05 | 0.00 | 88 | 955.6 |
| 20260506043048 | 52 | 27 | 2.6 | 7.0 | 0.00 | 0.05 | 0.00 | 88 | 955.4 |
| 20260506041546 | 52 | 26 | 3.5 | 5.2 | 0.00 | 0.05 | 0.00 | 88 | 955.5 |
| 20260506040038 | 52 | 26 | 0.9 | 2.6 | 0.00 | 0.05 | 0.00 | 89 | 955.7 |
| 20260506034535 | 52 | 273 | 0.0 | 3.5 | 0.00 | 0.05 | 0.05 | 89 | 956.1 |
| 20260506033032 | 53 | 360 | 0.0 | 4.3 | 0.00 | 0.05 | 0.05 | 90 | 956.0 |
| 20260506031539 | 54 | 244 | 0.9 | 2.6 | 0.00 | 0.05 | 0.05 | 90 | 955.8 |
| 20260506030029 | 54 | 298 | 0.9 | 4.3 | 0.00 | 0.05 | 0.05 | 90 | 955.9 |
| 20260506024525 | 55 | 275 | 0.0 | 2.6 | 0.00 | 0.05 | 0.05 | 91 | 955.7 |
| 20260506023038 | 56 | 273 | 1.7 | 4.3 | 0.00 | 0.05 | 0.05 | 91 | 955.8 |
| 20260506021623 | 56 | 266 | 1.7 | 3.5 | 0.00 | 0.05 | 0.05 | 91 | 955.6 |
| 20260506020024 | 57 | 264 | 0.9 | 2.6 | 0.00 | 0.05 | 0.05 | 91 | 955.5 |
| 20260506014519 | 57 | 256 | 0.0 | 2.6 | 0.00 | 0.05 | 0.05 | 91 | 955.4 |
| 20260506013018 | 58 | 247 | 0.0 | 0.9 | 0.00 | 0.05 | 0.05 | 90 | 955.4 |
| 20260506011513 | 60 | 248 | 0.9 | 3.5 | 0.00 | 0.05 | 0.05 | 88 | 955.1 |
| 20260506010014 | 61 | 138 | 0.0 | 3.5 | 0.00 | 0.05 | 0.05 | 84 | 954.9 |
| 20260506004512 | 61 | 138 | 0.9 | 3.5 | 0.00 | 0.05 | 0.05 | 81 | 954.7 |
| 20260506003014 | 61 | 168 | 0.9 | 4.3 | 0.00 | 0.05 | 0.05 | 81 | 954.3 |
| 20260506001509 | 61 | 155 | 0.9 | 4.3 | 0.00 | 0.05 | 0.05 | 81 | 954.3 |
| 20260506000009 | 61 | 157 | 0.9 | 5.2 | 0.00 | 0.05 | 0.05 | 83 | 954.1 |
| 20260505234509 | 61 | 174 | 0.0 | 2.6 | 0.00 | 0.05 | 0.05 | 83 | 954.1 |
| 20260505233008 | 61 | 166 | 0.9 | 4.3 | 0.00 | 0.05 | 0.05 | 84 | 954.2 |
| 20260505231509 | 61 | 167 | 0.0 | 1.7 | 0.00 | 0.05 | 0.05 | 84 | 954.0 |
| 20260505230011 | 61 | 167 | 0.0 | 1.7 | 0.00 | 0.05 | 0.05 | 85 | 954.2 |
| 20260505224508 | 61 | 166 | 0.0 | 6.1 | 0.00 | 0.05 | 0.05 | 84 | 954.0 |
| 20260505223006 | 62 | 183 | 0.9 | 6.1 | 0.00 | 0.05 | 0.05 | 82 | 953.9 |